Location: Beetenbrück
(52.8113°N, 9.5946°E)
Time: 21:20:12
(UTC+00:00)

Cosmos 2237 Rocket - Pass Details

Date: 14 April 2026
Orbit: 833 x 850 km, 71.0° (Epoch: 12 May)

Event Time Altitude Azimuth Distance (km) Brightness Sun altitude
Rises 19:55:35 0° 186° (S) 3,391 5.0 -13.7°
Reaches altitude 10° 19:58:07 10° 180° (S) 2,463 4.3 -14.0°
Maximum altitude 20:03:25 43° 110° (ESE) 1,173 2.5 -14.6°
Drops below altitude 10° 20:08:47 10° 41° (NE) 2,486 4.6 -15.3°
Sets 20:11:20 0° 35° (NE) 3,427 5.4 -15.6°
